Terug naar catalogus

STARLINK-32633

ActiefCommunicatieVLEO
NORAD 62306·PAYLOAD·🇺🇸 United States

Gelanceerd Dec 13, 2024 vanaf Vandenberg Space Force Base

Loading…

Volgende Passages (komende 24 uur)

TLE

VersSource: CelesTrak SupGP

Epoch: Sep 15, 2026, 03:07 UTC

1 62306C 24239F   26258.13034722  .00020371  00000+0  60194-3 0  2585
2 62306  53.1602  30.9868 0001196  90.5091 153.1925 15.34376595    16

Volg STARLINK-32633 in realtime met AllMySat

Download on the App Store